Home   Weather   Paris Street Park   Past weeks
Flag for USA

Past Weather in Paris Street Park, Ohio, USA — Yesterday and Last 2 Weeks

Now
46 °F

Passing clouds.


Feels Like: 41 °F
Forecast: 62 / 45 °F
Wind: 12 mph from West

Location: Dayton / Wright-Patterson Air Force Base

Current Time: Oct 16, 2019 at 8:15:47 am

Latest Report: Oct 16, 2019 at 7:41 am


Visibility: 10 mi

Pressure: 29.75 "Hg

Humidity: 82%

Dew Point: 41 °F

Location of Paris Street ParkLocation

Past Weather in Paris Street Park — Graph

°F

Paris Street Park Temperature Yesterday

Maximum temperature yesterday: 74 °F (at 3:56 pm)
Minimum temperature yesterday: 37 °F (at 7:56 am)
Average temperature yesterday: 57 °F

High & Low Weather Summary for the Past Weeks

 TemperatureHumidityPressure
High93 °F (Oct 2, 3:56 pm)100% (Oct 1, 7:36 am)30.31 "Hg (Oct 1, 7:36 am)
Low36 °F (Oct 12, 7:56 am)27% (Oct 13, 3:56 pm)29.71 "Hg (Oct 16, 3:56 am)
Average61 °F68%30.07 "Hg
* Reported Oct 1 6:56 am — Oct 16 6:56 am, Paris Street Park. Weather by CustomWeather, © 2019

Note: Actual official high and low records may vary slightly from our data, if they occured in-between our weather recording intervals... More about our weather records

Advertising

Paris Street Park Weather History for the Previous 24 Hours

Scroll right to see more
 ConditionsComfort  
Time TempWeatherWind HumidityBarometerVisibility
6:56 am
Wed, Oct 16
48 °FOvercast.9 mph89%29.74 "Hg10 mi
6:37 am48 °FMostly cloudy.10 mph87%29.74 "Hg10 mi
5:56 am49 °FLight rain. Mostly cloudy.8 mph92%29.73 "Hg10 mi
5:25 am50 °FHeavy rain. Fog.7 mph88%29.74 "Hg3 mi
5:10 am50 °FHeavy rain. Fog.9 mph88%29.76 "Hg3 mi
4:56 am51 °FRain. Mostly cloudy.15 mph83%29.75 "Hg5 mi
4:26 am54 °FLight rain. Mostly cloudy.18 mph82%29.72 "Hg7 mi
4:17 am54 °FMostly cloudy.14 mph82%29.71 "Hg10 mi
3:56 am57 °FSprinkles. Mostly cloudy.17 mph82%29.71 "Hg6 mi
3:10 am64 °FLight rain. Overcast.9 mph78%29.71 "Hg10 mi
2:56 am64 °FOvercast.9 mph79%29.71 "Hg10 mi
2:32 am64 °FOvercast.10 mph78%29.72 "Hg10 mi
1:56 am64 °FMostly cloudy.10 mph77%29.74 "Hg10 mi
1:32 am64 °FPassing clouds.6 mph78%29.74 "Hg10 mi
1:09 am66 °FSprinkles. Passing clouds.15 mph73%29.72 "Hg10 mi
12:56 am66 °FSprinkles. Overcast.8 mph71%29.74 "Hg10 mi
11:56 pm
Tue, Oct 15
65 °FPassing clouds.9 mph70%29.76 "Hg10 mi
11:11 pm66 °FPassing clouds.9 mph68%29.76 "Hg10 mi
10:56 pm65 °FPassing clouds.12 mph68%29.77 "Hg10 mi
9:56 pm65 °FPassing clouds.10 mph63%29.79 "Hg10 mi
8:56 pm67 °FMostly cloudy.10 mph57%29.82 "Hg10 mi
7:56 pm69 °FOvercast.10 mph53%29.83 "Hg10 mi
6:56 pm70 °FPartly sunny.10 mph48%29.84 "Hg10 mi
5:56 pm73 °FPassing clouds.12 mph39%29.85 "Hg10 mi
4:56 pm74 °FSunny.15 mph33%29.86 "Hg10 mi
3:56 pm74 °FSunny.16 mph32%29.87 "Hg10 mi
2:56 pm74 °FSunny.13 mph29%29.90 "Hg10 mi
1:56 pm72 °FSunny.16 mph29%29.95 "Hg10 mi
12:56 pm69 °FSunny.12 mph32%30.00 "Hg10 mi
11:56 am65 °FSunny.10 mph35%30.04 "Hg10 mi
10:56 am59 °FSunny.8 mph50%30.07 "Hg10 mi
9:56 am50 °FSunny.No wind68%30.10 "Hg10 mi
8:56 am40 °FSunny.3 mph88%30.11 "Hg10 mi
Weather by CustomWeather, © 2019

See weather overview